Flight Track Log - Related Links

Times and Time Zones

All times are in EDT time to prevent confusion due to time zone crossing. See the UAL4236 flight status page for this flight to view local times or setup timezone preferences in your user account.

Time Position Orientation Groundspeed Altitude Reporting Facility
EDT Latitude Longitude Course Direction KTS MPH feet Rate Location/Type
10:20 29.9594 -95.3414 276° West 159 183 700  Level Houston Center
10:21 29.9086 -95.3836 216° Southwest 244 281 3,100 1,782 Climbing Houston Center
10:22 29.9044 -95.4053 257° West 255 293 3,700 2,613 Climbing Houston Center
10:22 29.9122 -95.4678 278° West 273 314 5,800 3,097 Climbing Houston Center
10:23 29.9197 -95.5072 282° West 270 311 6,900 2,656 Climbing Houston Center
10:23 29.9283 -95.5525 282° West 272 313 8,500 2,286 Climbing Houston Center
10:24 29.9397 -95.5906 289° West 270 311 9,300 1,574 Climbing Houston Center
10:24 29.9531 -95.6436 286° West 290 334 10,100 968 Climbing Houston Center
10:25 30.0372 -95.8460 276° West  Level FlightAware Approximate
10:25 29.9664 -95.6828 291° West 299 344 10,300  Level Houston Center
10:25 29.9833 -95.7461 287° West 348 400 11,200 1,548 Climbing Houston Center
10:26 30.0458 -95.9491 276° West  Level FlightAware Approximate
10:26 29.9953 -95.7869 289° West 337 388 11,900  Level Houston Center
10:27 30.0239 -95.8922 287° West 344 396 13,800 1,839 Climbing Houston Center
10:28 30.0589 -96.0192 288° West 347 399 15,700 1,694 Climbing Houston Center
10:29 30.0819 -96.1244 284° West 348 400 17,300 1,597 Climbing Houston Center
10:30 30.0983 -96.2344 280° West 350 403 19,000 1,452 Climbing Houston Center
10:31 30.1136 -96.3436 279° West 348 400 20,300 1,200 Climbing Houston Center
10:32 30.1319 -96.4636 280° West 358 412 21,500 1,152 Climbing Houston Center
10:33 30.1506 -96.5817 280° West 370 426 22,700 1,210 Climbing Houston Center
10:34 30.1714 -96.7225 280° West 375 432 24,000 1,161 Climbing Houston Center
10:35 30.1900 -96.8447 280° West 382 440 25,100 1,161 Climbing Houston Center
10:36 30.2078 -96.9672 280° West 382 440 26,400 1,306 Climbing Houston Center
10:37 30.2258 -97.0869 280° West 375 432 27,800 1,306 Climbing Houston Center
10:38 30.2431 -97.2061 280° West 370 426 29,100 1,210 Climbing Houston Center
10:39 30.2592 -97.3214 279° West 363 418 30,300 1,248 Climbing Houston Center
10:40 30.2764 -97.4353 280° West 357 411 31,700 1,392 Climbing Houston Center
10:42 30.2925 -97.5456 280° West 347 399 33,200 1,500 Climbing Houston Center
10:43 30.3100 -97.6692 279° West 332 382 34,800 1,355 Climbing Houston Center
10:44 30.3244 -97.7689 280° West 317 365 36,000 581 Climbing Houston Center
10:45 30.3381 -97.8689 279° West 312 359 36,000  Level Houston Center
10:46 30.3531 -97.9756 279° West 328 377 36,000  Level Houston Center
10:47 30.3689 -98.0864 279° West 343 395 36,000  Level Houston Center
10:48 30.3844 -98.1983 279° West 347 399 36,000 -672 Level Houston Center
10:49 30.3997 -98.3119 279° West 353 406 34,600 -1,403 Descending Houston Center
10:50 30.4161 -98.4308 279° West 367 422 33,100 -1,597 Descending Houston Center
10:51 30.4347 -98.5744 279° West 382 440 31,300 -1,597 Descending Houston Center
10:52 30.4522 -98.7006 279° West 391 450 29,800 -1,452 Descending Houston Center
10:53 30.4692 -98.8278 279° West 396 456 28,300 -871 Descending Houston Center
10:54 30.4883 -98.9583 280° West 405 466 28,000 -145 Descending Houston Center
10:55 30.5047 -99.0903 278° West 408 470 28,000  Level Houston Center
10:56 30.5242 -99.2281 279° West 412 474 28,000  Level Houston Center
10:57 30.5408 -99.3581 278° West 411 473 28,000  Level Houston Center
10:58 30.5572 -99.4883 278° West 411 473 28,000  Level Houston Center
10:59 30.5772 -99.6447 278° West 411 473 28,000  Level Houston Center
11:00 30.5953 -99.7761 279° West 413 475 28,000  Level Houston Center
11:01 30.6194 -99.9047 282° West 412 474 28,000  Level Houston Center
11:02 30.6456 -100.0342 283° West 413 475 28,000  Level Houston Center
11:03 30.6725 -100.1631 284° West 414 476 28,000  Level Houston Center
11:04 30.7025 -100.3167 283° West 413 475 28,000  Level Houston Center
11:05 30.7289 -100.4458 283° West 411 473 28,000  Level Houston Center
11:06 30.7533 -100.5797 282° West 431 496 28,000  Level Houston Center
11:07 30.7803 -100.7081 284° West 416 479 28,000  Level Houston Center
11:08 30.8044 -100.8392 282° West 416 479 28,000  Level Houston Center
11:09 30.8344 -100.9933 283° West 411 473 28,000  Level Houston Center
11:10 30.8600 -101.1219 283° West 410 472 28,000 -242 Level Houston Center
11:12 30.8631 -101.2533 272° West 416 479 27,500 -528 Descending Houston Center
11:13 30.8381 -101.3817 257° West 413 475 26,900 -576 Descending Houston Center
11:14 30.8164 -101.5061 259° West 405 466 26,300 -779 Descending Houston Center
11:15 30.8286 -101.6631 275° West 407 468 25,200 -916 Descending Albuquerque Center
11:16 30.8600 -101.7917 286° West 408 470 24,300 -581 Descending Albuquerque Center
11:17 30.8889 -101.9197 285° West 409 471 24,000 -145 Descending Albuquerque Center
11:18 30.9186 -102.0478 285° West 409 471 24,000  Level Albuquerque Center
11:19 30.9483 -102.1764 285° West 409 471 24,000  Level Albuquerque Center
11:20 30.9847 -102.3317 285° West 409 471 24,000  Level Albuquerque Center
11:21 31.0092 -102.4375 285° West 410 472 24,000  Level Albuquerque Center
11:22 31.0442 -102.5908 285° West 410 472 24,000  Level Albuquerque Center
11:23 31.0731 -102.7194 285° West 409 471 24,000  Level Albuquerque Center
11:24 31.1022 -102.8483 285° West 410 472 24,000  Level Albuquerque Center
11:25 31.1308 -102.9775 285° West 410 472 24,000  Level Albuquerque Center
11:26 31.1592 -103.1067 284° West 411 473 24,000  Level Albuquerque Center
11:27 31.1889 -103.2356 285° West 411 473 24,000  Level Albuquerque Center
11:28 31.2236 -103.3897 285° West 410 472 24,000  Level Albuquerque Center
11:29 31.2508 -103.5181 284° West 408 470 24,000  Level Albuquerque Center
11:30 31.2800 -103.6461 285° West 407 468 24,000  Level Albuquerque Center
11:31 31.3081 -103.7772 284° West 408 470 24,000  Level Albuquerque Center
11:32 31.3358 -103.9039 284° West 405 466 24,000  Level Albuquerque Center
11:33 31.3633 -104.0317 284° West 406 467 24,000  Level Albuquerque Center
11:34 31.3911 -104.1583 284° West 404 465 24,000  Level Albuquerque Center
11:35 31.4261 -104.3133 285° West 408 470 24,000  Level Albuquerque Center
11:36 31.4531 -104.4433 284° West 411 473 24,000  Level Albuquerque Center
11:37 31.4672 -104.5739 277° West 411 473 24,000  Level Albuquerque Center
11:38 31.4800 -104.7047 277° West 409 471 24,000  Level Albuquerque Center
11:40 31.4939 -104.8317 277° West 405 466 24,000  Level Albuquerque Center
11:41 31.5061 -104.9531 277° West 392 451 24,000  Level Albuquerque Center
11:42 31.5203 -105.0989 277° West 381 438 24,000 -581 Level Albuquerque Center
11:43 31.5331 -105.2217 277° West 382 440 22,800 -1,500 Descending Albuquerque Center
11:44 31.5442 -105.3453 276° West 383 441 20,900 -1,951 Descending Albuquerque Center
11:45 31.5547 -105.4644 276° West 372 428 18,800 -2,122 Descending Albuquerque Center
11:45 31.5597 -105.5200 276° West 362 417 18,000 -1,742 Descending Albuquerque Center
11:46 31.5664 -105.5775 278° West 354 407 17,000 -1,869 Descending Albuquerque Center
11:46 31.5722 -105.6317 277° West 347 399 16,100 -1,742 Descending Albuquerque Center
11:47 31.5778 -105.6881 277° West 344 396 15,200 -1,700 Descending Albuquerque Center
11:47 31.5817 -105.7389 275° West 334 384 14,400 -2,129 Descending Albuquerque Center
11:48 31.5947 -105.8164 281° West 336 387 13,000 -1,672 Descending Albuquerque Center
11:48 31.6092 -105.8394 306° West 319 367 12,700 -1,574 Descending Albuquerque Center
11:49 31.6369 -105.8975 299° West 289 333 11,400 -1,700 Descending Albuquerque Center
11:49 31.6469 -105.9172 301° West 264 304 11,000 -1,452 Descending Albuquerque Center
11:50 31.6739 -105.9714 300° West 267 307 9,900 -1,279 Descending Albuquerque Center
11:50 31.6844 -105.9925 300° West 260 299 9,700 -1,355 Descending Albuquerque Center
11:51 31.7106 -106.0442 301° West 260 299 8,500 -991 Descending Albuquerque Center
11:52 31.7444 -106.1139 300° West 245 282 7,900 -976 Descending Albuquerque Center
11:53 31.7731 -106.1717 300° West 208 239 6,500 -1,377 Descending Albuquerque Center

Login

Don't have an account? Register now (free) for customized features, flight alerts, and more!